Погода в Чащине

Россия / Тамбовская область     51°49′24″N   42°23′17″E
темп.,
°C
ветер,
м/с
пор.,
м/с
влажн.,
%
обл.,
%
осадки,
мм/ч
давл.,
гПа
погр.,
м
16 апреля, пт
пт1600:00+12ссз228499 0.5 101524
03:00+11юв1186100 1.4 101617
06:00+11з2290100 0.8 101643
09:00+14з2268100 1.1 1016382
12:00+18зюз324897 0.0 10171377
15:00+19ююз334230 0.0 10171948
18:00+18ююз234828 0.0 101772
21:00+14юв00550 0.0 101710
17 апреля, сб
сб1700:00+12ююз0159100 0.0 101811
03:00+11вюв2269100 0.0 101815
06:00+10юз0169100 0.0 101811
09:00+14вюв2355100 0.0 1017294
12:00+13ююз6771100 0.4 1018837
15:00+9юз3586100 5.6 1020569
18:00+10в117311 0.9 1020374
21:00+7юв22836 0.9 102020
18 апреля, вс
вс1800:00+6вюв2284100 0.0 102119
03:00+6в228831 0.0 102113
06:00+5ю229046 0.0 102140
09:00+10юз127618 0.0 1020529
12:00+13юз335134 0.0 10201528
15:00+14зюз224463 0.0 10191819
18:00+12ссз455790 0.0 1019332
21:00+11св2468100 0.0 1020100
19 апреля, пн
пн1900:00+10св2371100 0.0 102054
03:00+9всв2373100 0.0 102069
06:00+8св2272100 0.0 102027
09:00+12всв3464100 0.0 1019511
12:00+15в555373 0.6 10181549
15:00+15в6656100 0.9 10181063
18:00+12всв710745 0.6 1018689
21:00+8в71186100 0.6 1019405
20 апреля, вт
вт2000:00+7в61187100 0.0 1018445
03:00+7в71388100 0.0 1017477
06:00+8в91788100 0.0 1015567
09:00+9в101988100 0.9 1013749
12:00+10вюв112187100 2.4 10111014
15:00+11вюв112191100 8.6 10091183
18:00+12юв142187100 5.9 10091017
21:00+12юв112092100 8.8 10101116